STARLINK-31467, 59235

Orbit data source: Space-Track

STARLINK-31467, 59235 is a payload satellite owned by SpaceX/Seattle (US) in LEO that was launched on Sat, 16 Mar 2024 UTC via an FALCON 9 launch vehicle from the Air Force Eastern Test Range (AFETR). Payload-class satellites include a variety of spacecraft equipped with specific instruments for various scientific and technological missions. These include communications satellites like Starlink; space stations such as the ISS; scientific satellites like the Hubble; Earth observation satellites from companies like Planet Labs, Umbra, and HawkEye 360; GPS; miniature CubeSats for education and research; and military/defense satellites.

Loading next visibility...
Identifier
59235, 2024-049E
Orbit
LEO
Country
Flag of USUS
Related business
Manufacturer
SpaceX/Seattle
Mission
Operational Commercial Communications
Bus & Motor
STARLINK V2M, Unknown motor
Mass
730 kg wet, ~700 kg dry
Launch date (UTC)
2024-03-16 (2 years ago)
Launch vehicle
FALCON 9
Launch site
Air Force Eastern Test Range (AFETR)
Object type
Payload
Rocket body
Debris
Shape & HBR
Box + 2 Pan, 17.7 m
Radar Cross Section
33.884 m², Large (>1 m²)

Expand to show TLE details & history
Last TLE update: 2 days ago

TLE from 2 days ago
0 STARLINK-31467
1 59235U 24049E   26171.39331016 -.00003716  00000-0 -12544-3 0  9994
2 59235  43.0065 283.4954 0001803 274.0204  86.0441 15.27613445128114
Epoch: 2026-06-20T09:26Z
TLE epoch observation values (Epoch: 2026-06-20T09:26:21.997Z)
Latitude
-0.00008°
Longitude
-126.70491°
Altitude
482.64 km
Speed
7.626 km/s
True Right ascension
18h 53m 58s
True Declination
0° 00' 00"
Sunlit
Object was in full shadow at epoch
Visualization orbit readout
Latitude
Unknown
Longitude
Unknown
Altitude
Unknown
Speed
Unknown
Apparent Right ascension
Unknown
Apparent Declination
Unknown
Sunlit
N/A
Visualization observer readout
Local Sidereal Time
21:30:16
Azimuth
Unknown
Elevation
Unknown
Doppler factor
Unknown
Orbital elements
Apogee altitude
486.13 km
Perigee altitude
483.656 km
Semi-major axis
6,863.03 km
Eccentricity
0.00018
Inclination
43.0065°
RAAN
283.4954°
Arg. of periapsis
274.0204°
True anomaly
86.06471°
Mean anomaly
86.0441°
Eccentric anomaly
86.05441°
Mean motion
3.81741 °/min
Orbital period
94.3 mins
BSTAR
-0.00012544
Loading maneuver chart data...
Computing Atmospheric mass density...
Loading historical data...
Loading historical data...
Loading historical data...
Loading historical data...
Loading historical data...
Loading historical data...
Loading historical data...

Documentation

Showing up to 5 results
|